[[{"header":{"parameterUnit":"m.s-1","parameterCategory":1,"la1":30.2991,"la2":30.254,"lo1":-89.0895,"lo2":-89.0444,"dy":0.0017,"dx":0.0017,"nx":28,"ny":28,"refTime":"2025-05-17T21:00:00:Z","depth":0,"parameterNumber":2,"parameterNumberName":"U-component_of_WINDS"},"data":[0,0,0,0,0,0,0,0,0,0,0,0,0,0,0,0,0,0,0,0,0,0,0,0,0,0,0,0,0,0,0,0,0,0,0,0,0,0,0,0,0,0,0,0,0,0,0,0,0,0,0,0,0,0,0,0,0,0,-0.0766,-0.0765,0,-0.0601,-0.0599,-0.0597,-0.0536,-0.0537,-0.0537,-0.0538,-0.0369,-0.0364,-0.0359,0,0,0,0,0,0,0,0,0,0,0,0,0,-0.1031,-0.1027,-0.0767,-0.0764,-0.0762,-0.0601,-0.0599,-0.0597,-0.0536,-0.0537,-0.0537,-0.0538,-0.037,-0.0364,-0.0358,0,0,0,0,0,0,0,0,0,0,0,0,0,-0.0896,-0.1025,-0.0767,-0.0713,-0.0706,-0.0602,-0.0599,-0.0596,-0.0536,-0.0537,-0.0538,-0.0538,-0.0372,-0.0365,-0.0357,-0.0295,0,0,-0.0334,-0.0331,0,0,0,0,0,0,0,0,-0.0904,-0.0887,-0.0723,-0.0716,-0.0709,-0.059,-0.063,-0.0495,-0.0536,-0.0601,-0.0538,-0.0539,-0.0442,-0.0428,-0.0396,-0.0287,-0.0279,-0.0334,-0.0329,-0.0326,-0.0324,0,0,0,0,0,0,0,-0.0913,-0.0893,-0.0701,-0.0721,-0.0712,-0.0697,-0.0679,-0.0604,-0.0519,-0.0595,-0.059,-0.0571,-0.0438,-0.0403,-0.0391,-0.0277,-0.0334,-0.0327,-0.0323,-0.032,-0.0108,-0.0107,0,0,0,0,0,0,-0.0932,-0.0902,-0.0706,-0.0696,-0.081,-0.0692,-0.0671,-0.0627,-0.0519,-0.0503,-0.0571,-0.0569,-0.0415,-0.04,-0.0385,-0.0304,-0.0326,-0.0319,-0.0315,-0.0109,-0.0108,-0.0106,0,0,0,0,0,0,-0.0938,-0.0915,-0.0713,-0.0797,-0.0771,-0.0686,-0.0637,-0.0624,-0.0588,-0.0501,-0.0485,-0.0551,-0.0415,-0.0396,-0.0317,-0.0297,-0.0316,-0.0309,-0.011,-0.0109,-0.0107,-0.0142,0,0,0,0,0,0,-0.0946,-0.0917,-0.0892,-0.0797,-0.0766,-0.0648,-0.0636,-0.062,-0.0576,-0.0572,-0.0478,-0.0463,-0.0415,-0.0329,-0.031,-0.0287,-0.0303,-0.0112,-0.0109,-0.0108,-0.0142,-0.0141,-0.0141,0,0,0,0,0,-0.0955,-0.0909,-0.0891,-0.0868,-0.0733,-0.0647,-0.0629,-0.0574,-0.0574,-0.0548,-0.0492,-0.0466,-0.0303,-0.0321,-0.03,-0.0274,-0.0113,-0.011,-0.0108,-0.0142,-0.0141,-0.0141,0,0,0,0,0,0,-0.1004,-0.0895,-0.0875,-0.0796,-0.0731,-0.0637,-0.0603,-0.0575,-0.0509,-0.0508,-0.0443,-0.0422,-0.0349,-0.0304,-0.0327,-0.0208,-0.0206,-0.0199,-0.024,-0.0238,-0.0238,-0.025,-0.0297,0,0,0,0,0,-0.1006,-0.0944,-0.0853,-0.0792,-0.0761,-0.0688,-0.0648,-0.0611,-0.0541,-0.0514,-0.0451,-0.0385,-0.0318,-0.0276,-0.021,-0.0135,-0.0114,-0.0107,-0.0107,-0.0107,-0.0101,-0.0058,-0.0054,-0.0098,-0.0098,-0.0098,0,0,-0.1008,-0.0941,-0.0907,-0.0801,-0.0746,-0.0684,-0.0665,-0.06,-0.0554,-0.0504,-0.0426,-0.0378,-0.03,-0.0223,-0.0186,-0.0183,-0.0084,-0.0103,-0.0104,-0.0098,-0.0055,-0.0051,-0.0047,-0.0096,-0.0097,-0.0097,0,0,-0.0982,-0.0925,-0.0868,-0.0814,-0.0731,-0.0683,-0.0669,-0.0579,-0.0545,-0.0466,-0.0427,-0.0371,-0.0258,-0.0204,-0.0161,-0.0114,-0.0088,-0.0095,-0.0092,-0.0051,-0.0047,-0.0044,-0.0027,-0.0022,-0.009,-0.009,-0.009,0,-0.0995,-0.09,-0.0843,-0.078,-0.0734,-0.0686,-0.0628,-0.0578,-0.0479,-0.0449,-0.0447,-0.0304,-0.0247,-0.0157,-0.0146,-0.0113,-0.0096,-0.0105,-0.0052,-0.0048,-0.0044,-0.0027,-0.0021,-0.0091,-0.0091,-0.0091,-0.0091,0,-0.0921,-0.0856,-0.082,-0.0725,-0.0675,-0.0616,-0.0549,-0.0506,-0.0474,-0.0426,-0.0346,-0.0277,-0.0196,-0.0172,-0.014,-0.0077,-0.0078,-0.0065,-0.0062,-0.0042,-0.0025,-0.0018,-0.0093,-0.0093,-0.0092,-0.0092,0,0,-0.092,-0.0793,-0.0781,-0.0737,-0.0643,-0.0591,-0.053,-0.045,-0.0415,-0.0348,-0.0294,-0.02,-0.0188,-0.0139,-0.0101,-0.0065,-0.0032,-0.0056,-0.0053,-0.0054,0.0041,0.0031,0.0038,-0.0014,-0.0013,-0.0012,0.0035,0,-0.088,-0.0767,-0.0713,-0.0624,-0.0563,-0.0517,-0.0463,-0.0399,-0.0353,-0.0295,-0.0244,-0.0178,-0.0167,-0.0137,-0.01,-0.0044,-0.0012,-0.0047,0.0036,0.0038,0.0016,0.0047,0.0037,0.0077,0.0042,0.0043,0.0044,0,-0.0819,-0.0752,-0.0656,-0.0569,-0.0541,-0.0494,-0.0417,-0.0362,-0.0289,-0.0258,-0.0205,-0.0167,-0.0101,-0.0103,-0.0011,-0.0036,0.0001,0.0033,0.0036,0.0047,0.0043,0.0058,0.0092,0.0098,0.0055,0.0054,0.0053,0,-0.0827,-0.0713,-0.0641,-0.0605,-0.0501,-0.0469,-0.0424,-0.0352,-0.0308,-0.0241,-0.0212,-0.0138,-0.0098,-0.0042,0.0014,0.0007,0.0101,0.0103,0.0129,0.0127,0.0147,0.0145,0.0187,0.017,0.017,0.0169,0.0169,0,-0.0788,-0.0731,-0.0643,-0.0599,-0.0534,-0.0473,-0.0411,-0.0363,-0.0299,-0.0245,-0.0201,-0.0151,-0.0081,-0.0022,0.0022,0.0092,0.011,0.0137,0.0148,0.0133,0.013,0.0159,0.0158,0.0171,0.0171,0.017,0.017,0,-0.0786,-0.0725,-0.0643,-0.0552,-0.0527,-0.0484,-0.0405,-0.0361,-0.0313,-0.0245,-0.0225,-0.015,-0.0078,-0.0017,0.0076,0.0106,0.0178,0.0192,0.0154,0.016,0.0182,0.0179,0.0245,0.0256,0.023,0.023,0.023,0,-0.0765,-0.072,-0.0624,-0.0584,-0.054,-0.0477,-0.0432,-0.037,-0.0325,-0.0239,-0.0205,-0.013,-0.0067,0.0044,0.0107,0.0179,0.0195,0.0213,0.0206,0.019,0.0196,0.0192,0.0197,0.0213,0.0213,0.0213,0.0213,0,-0.0734,-0.0706,-0.0642,-0.0567,-0.0514,-0.0453,-0.039,-0.036,-0.0287,-0.0239,-0.0165,-0.0117,-0.0021,0.0053,0.0131,0.0177,0.0207,0.0214,0.0224,0.021,0.0187,0.02,0.0155,0.0213,0.0213,0.0213,0.0213,0.0213,-0.0721,-0.0679,-0.0605,-0.0535,-0.0481,-0.0424,-0.0377,-0.0323,-0.0261,-0.0178,-0.0146,-0.0071,0.0001,0.011,0.0155,0.0215,0.0219,0.0233,0.0237,0.024,0.0238,0.0176,0.0229,0.0229,0.0229,0.023,0.023,0,-0.0687,-0.0637,-0.0574,-0.0487,-0.0432,-0.0409,-0.0338,-0.0294,-0.0229,-0.0164,-0.0103,-0.0019,0.0052,0.0121,0.0195,0.023,0.0245,0.0247,0.0246,0.0256,0.0229,0.0213,0.0233,0.0233,0.0233,0.0233,0.0233,0.0233,-0.0663,-0.0591,-0.0554,-0.0455,-0.0405,-0.0331,-0.0292,-0.0239,-0.0188,-0.0095,-0.0036,0.0008,0.0075,0.0154,0.0221,0.0239,0.0264,0.0263,0.0285,0.0259,0.0258,0.0256,0.0242,0.0268,0.0268,0.0307,0.0307,0.0307]},{"header":{"parameterUnit":"m.s-1","parameterCategory":1,"la1":30.2991,"la2":30.254,"lo1":-89.0895,"lo2":-89.0444,"dy":0.0017,"dx":0.0017,"nx":28,"ny":28,"refTime":"2025-05-17T21:00:00:Z","depth":0,"parameterNumber":3,"parameterNumberName":"V-component_of_WINDS"},"data":[0,0,0,0,0,0,0,0,0,0,0,0,0,0,0,0,0,0,0,0,0,0,0,0,0,0,0,0,0,0,0,0,0,0,0,0,0,0,0,0,0,0,0,0,0,0,0,0,0,0,0,0,0,0,0,0,0,0,4.2056,4.2056,0,4.1999,4.1998,4.1997,4.1919,4.1918,4.1917,4.1916,4.1854,4.1853,4.1853,0,0,0,0,0,0,0,0,0,0,0,0,0,4.2098,4.2097,4.2056,4.2056,4.2055,4.1999,4.1998,4.1997,4.192,4.1918,4.1917,4.1915,4.1854,4.1853,4.1853,0,0,0,0,0,0,0,0,0,0,0,0,0,4.2064,4.2097,4.2057,4.201,4.2005,4.1999,4.1998,4.1997,4.192,4.1918,4.1916,4.1914,4.1854,4.1853,4.1853,4.1887,0,0,4.1851,4.185,0,0,0,0,0,0,0,0,4.2066,4.2062,4.2017,4.2013,4.2007,4.1964,4.199,4.196,4.192,4.1952,4.1916,4.1913,4.1892,4.1888,4.1881,4.1884,4.1882,4.185,4.185,4.185,4.185,0,0,0,0,0,0,0,4.2068,4.2064,4.2033,4.2017,4.2011,4.1991,4.1984,4.1984,4.1933,4.1949,4.1943,4.1938,4.1889,4.1882,4.1879,4.1881,4.1851,4.185,4.1849,4.1849,4.1909,4.1911,0,0,0,0,0,0,4.2078,4.2067,4.2035,4.2032,4.2033,4.1992,4.1984,4.198,4.1933,4.1924,4.194,4.1934,4.1884,4.188,4.1877,4.1914,4.185,4.1849,4.1849,4.1907,4.1909,4.1911,0,0,0,0,0,0,4.2079,4.2076,4.2038,4.2048,4.2041,4.1993,4.1989,4.198,4.1973,4.1926,4.1916,4.1942,4.1882,4.1878,4.1885,4.1911,4.1849,4.1848,4.1905,4.1908,4.191,4.1989,0,0,0,0,0,0,4.2081,4.2077,4.209,4.2049,4.2041,4.2048,4.1991,4.198,4.1973,4.1965,4.1926,4.1917,4.1881,4.1887,4.1885,4.1909,4.1848,4.1902,4.1906,4.1909,4.1984,4.1994,4.2003,0,0,0,0,0,4.2082,4.2114,4.2091,4.2088,4.2057,4.205,4.2045,4.2003,4.1975,4.1987,4.1957,4.1919,4.1909,4.1888,4.1885,4.1909,4.19,4.1905,4.1909,4.198,4.1992,4.2003,0,0,0,0,0,0,4.2158,4.2107,4.2082,4.2101,4.208,4.2037,4.2051,4.2018,4.2004,4.1998,4.1946,4.1937,4.1952,4.1931,4.1909,4.194,4.1899,4.1903,4.1953,4.1965,4.1974,4.1979,4.1847,0,0,0,0,0,4.2177,4.2177,4.2132,4.2153,4.2144,4.21,4.2095,4.2065,4.2041,4.2032,4.2002,4.198,4.1971,4.1967,4.1957,4.1981,4.1971,4.1996,4.2006,4.2014,4.2018,4.2029,4.204,4.1926,4.1926,4.1926,0,0,4.2216,4.2188,4.2191,4.2168,4.2148,4.2148,4.2093,4.2095,4.2094,4.2031,4.2037,4.2015,4.1986,4.2003,4.2008,4.1986,4.2047,4.2019,4.2026,4.2026,4.2035,4.2045,4.2055,4.1929,4.1929,4.1928,0,0,4.2287,4.2267,4.2282,4.2264,4.2236,4.2206,4.221,4.2171,4.2154,4.216,4.2113,4.2111,4.2098,4.2079,4.2068,4.2134,4.2098,4.2132,4.2182,4.2194,4.2203,4.221,4.2233,4.2242,4.2136,4.2136,4.2136,0,4.2339,4.2338,4.2294,4.2299,4.229,4.2235,4.2249,4.2234,4.2203,4.2198,4.2174,4.2157,4.2134,4.2145,4.2161,4.2154,4.2157,4.2136,4.2205,4.2212,4.2219,4.224,4.2249,4.2141,4.214,4.214,4.2139,0,4.2403,4.2403,4.2419,4.2392,4.2385,4.2395,4.2352,4.2349,4.232,4.2293,4.2299,4.2269,4.2252,4.2253,4.2223,4.226,4.2247,4.2215,4.2172,4.2235,4.2254,4.2262,4.2147,4.2145,4.2144,4.2143,0,0,4.252,4.2469,4.2476,4.2463,4.2428,4.2427,4.2434,4.2419,4.2418,4.2399,4.2404,4.2394,4.2365,4.2352,4.232,4.2331,4.2384,4.2297,4.2295,4.2314,4.2423,4.2447,4.2457,4.2361,4.2362,4.2363,4.2425,0,4.2584,4.2595,4.2556,4.2576,4.2576,4.2523,4.253,4.2509,4.2484,4.2479,4.245,4.2445,4.2406,4.2398,4.2406,4.2376,4.2405,4.2371,4.2364,4.2364,4.2372,4.2467,4.2493,4.2553,4.2432,4.2434,4.2434,0,4.266,4.2647,4.2668,4.2632,4.2631,4.2637,4.262,4.2616,4.2591,4.2572,4.256,4.2523,4.2527,4.2487,4.2491,4.2469,4.2464,4.2449,4.245,4.2447,4.2403,4.2467,4.2571,4.258,4.2446,4.2445,4.2444,0,4.2743,4.273,4.2741,4.2732,4.2691,4.2697,4.268,4.2653,4.2646,4.2631,4.2626,4.2611,4.2603,4.2592,4.2552,4.2526,4.2562,4.2518,4.2545,4.2546,4.2555,4.2555,4.2659,4.2552,4.2552,4.2552,4.2551,0,4.2819,4.2834,4.2778,4.2785,4.28,4.2754,4.277,4.2748,4.2725,4.2726,4.2679,4.2681,4.2628,4.2624,4.2593,4.2602,4.2598,4.2582,4.2574,4.2586,4.2589,4.2582,4.2576,4.2554,4.2553,4.2553,4.2553,0,4.2914,4.2877,4.2886,4.2847,4.2837,4.285,4.2816,4.282,4.2792,4.2794,4.2792,4.2748,4.2741,4.27,4.2683,4.2662,4.2682,4.2665,4.2691,4.2685,4.2715,4.2713,4.2818,4.283,4.2716,4.2717,4.2718,0,4.2965,4.2976,4.2938,4.2936,4.2921,4.2918,4.2911,4.2867,4.2862,4.2834,4.2842,4.2831,4.282,4.281,4.2777,4.2763,4.2745,4.2783,4.2743,4.2756,4.2746,4.2746,4.2746,4.2792,4.2793,4.2795,4.2796,0,4.3059,4.3041,4.3033,4.302,4.3013,4.3,4.2984,4.2985,4.2935,4.2932,4.2924,4.2916,4.2899,4.2889,4.287,4.2851,4.2815,4.2809,4.2814,4.2827,4.2842,4.2834,4.2714,4.2806,4.2805,4.2805,4.2804,4.2804,4.3133,4.314,4.3115,4.3108,4.3092,4.3078,4.3081,4.3054,4.3047,4.303,4.3004,4.3001,4.2975,4.2946,4.2931,4.2926,4.2906,4.2914,4.2916,4.2919,4.2925,4.2843,4.2923,4.2922,4.2922,4.2922,4.2921,0,4.3225,4.3207,4.3201,4.318,4.3175,4.3143,4.3124,4.3121,4.3119,4.3099,4.3089,4.3081,4.307,4.3036,4.3022,4.3026,4.3009,4.3023,4.3022,4.3019,4.2944,4.2941,4.3037,4.3037,4.3037,4.3037,4.3037,4.3037,4.3272,4.3282,4.3261,4.3262,4.3243,4.324,4.3232,4.3219,4.3202,4.3195,4.3187,4.3165,4.3139,4.3123,4.3112,4.3102,4.3099,4.3119,4.3104,4.3035,4.3024,4.3013,4.301,4.3119,4.3119,4.3178,4.3179,4.3179]}]]